Home   Weather   Cabo da Roca   Past weeks
Flag for Portugal

Past Weather in Cabo da Roca, Portugal — Yesterday and Last 2 Weeks

Currently: 59 °F. Passing clouds. (Weather station: Lisbon Portela Airport, Portugal). See more current weather

Past Weather in Cabo da Roca — Graph

°F

Cabo da Roca Temperature Yesterday

Maximum temperature yesterday: 57 °F (at 1:00 pm)
Minimum temperature yesterday: 48 °F (at 1:00 am)
Average temperature yesterday: 52 °F

High & Low Weather Summary for the Past Weeks

 TemperatureHumidityPressure
High66 °F (Nov 17, 11:00 am)100% (Nov 16, 6:00 pm)30.39 "Hg (Nov 16, 6:00 pm)
Low46 °F (Nov 26, 5:30 am)59% (Nov 29, 1:30 pm)29.86 "Hg (Nov 30, 4:00 pm)
Average57 °F88%30.16 "Hg
* Reported Nov 16 12:00 pm — Dec 1 12:30 pm, Cabo da Roca. Weather by CustomWeather, © 2022

Note: Actual official high and low records may vary slightly from our data, if they occured in-between our weather recording intervals... More about our weather records

Cabo da Roca Weather History for the Previous 24 Hours

Scroll right to see more
 ConditionsComfort  
Time TempWeatherWind HumidityBarometerVisibility
12:30 pm
Thu, Dec 1
57 °FPassing clouds.13 mph77%29.95 "HgN/A
12:00 pm57 °FPassing clouds.14 mph77%29.95 "HgN/A
11:30 am57 °FPassing clouds.13 mph77%29.98 "HgN/A
11:00 am55 °FPassing clouds.12 mph88%29.98 "HgN/A
10:30 am54 °FPassing clouds.10 mph88%29.98 "HgN/A
10:00 am52 °FPassing clouds.10 mph94%29.95 "HgN/A
9:30 am52 °FPassing clouds.10 mph94%29.95 "HgN/A
9:00 am50 °FPassing clouds.10 mph100%29.95 "HgN/A
8:00 am48 °FScattered clouds.10 mph100%29.95 "HgN/A
7:30 am50 °FPartly cloudy.12 mph100%29.92 "HgN/A
7:00 am50 °FPartly cloudy.10 mph100%29.92 "HgN/A
6:00 am50 °FPartly cloudy.9 mph100%29.92 "HgN/A
5:30 am50 °FPassing clouds.10 mph100%29.89 "HgN/A
5:00 am50 °FPassing clouds.10 mph100%29.89 "Hg4 mi
4:30 am50 °FFog.15 mph100%29.89 "Hg3 mi
4:00 am50 °FPassing clouds.16 mph100%29.89 "Hg5 mi
3:30 am50 °FPassing clouds.14 mph100%29.89 "Hg4 mi
3:00 am50 °FPassing clouds.13 mph100%29.89 "HgN/A
2:30 am50 °FDrizzle. Fog.14 mph100%29.89 "Hg3 mi
2:00 am50 °FDrizzle. Fog.15 mph100%29.89 "Hg2 mi
1:30 am50 °FDrizzle. Fog.10 mph100%29.89 "Hg2 mi
1:00 am50 °FPassing clouds.12 mph100%29.89 "Hg1 mi
11:30 pm
Wed, Nov 30
52 °FCool.8 mph100%29.89 "Hg1 mi
11:00 pm52 °FCool.8 mph100%29.89 "Hg1 mi
10:30 pm52 °FFog.13 mph100%29.89 "Hg1 mi
10:00 pm54 °FFog.12 mph100%29.89 "Hg1 mi
9:30 pm54 °FFog.9 mph100%29.89 "Hg2 mi
9:00 pm54 °FFog.9 mph100%29.89 "Hg1 mi
8:30 pm54 °FFog.7 mph100%29.89 "Hg1 mi
8:00 pm54 °FFog.7 mph100%29.89 "Hg1 mi
7:30 pm54 °FCool.8 mph100%29.89 "Hg1 mi
7:00 pm54 °FPartly cloudy.9 mph100%29.89 "Hg4 mi
6:30 pm54 °FDrizzle. Fog.10 mph100%29.89 "Hg1 mi
6:00 pm55 °FPartly cloudy.6 mph100%29.86 "Hg4 mi
5:30 pm57 °FPartly cloudy.3 mph100%29.86 "HgN/A
5:00 pm57 °FRain. Fog.3 mph100%29.86 "Hg1 mi
4:00 pm57 °FRain. Fog.13 mph100%29.86 "Hg2 mi
3:30 pm57 °FDrizzle. Fog.13 mph100%29.89 "Hg3 mi
3:00 pm57 °FDrizzle. Fog.12 mph100%29.89 "Hg1 mi
2:30 pm57 °FDrizzle. Fog.12 mph100%29.92 "Hg2 mi
2:00 pm57 °FDrizzle. Fog.8 mph100%29.92 "Hg1 mi
Weather by CustomWeather, © 2022

See weather overview